| time (UTC) | temp F | wind direction | speed MPH | gust MPH | rain 1hr in | rain 24hr in | rain mn in | humidity % | barometer mb |
| 20260504014504 | 54 | 128 | 1.0 | 2.0 | 0.00 | 0.01 | 0.01 | 89 | 1013.7 |
| 20260504013004 | 54 | 240 | 1.0 | 8.0 | 0.00 | 0.01 | 0.01 | 88 | 1013.5 |
| 20260504011501 | 55 | 232 | 2.0 | 7.0 | 0.00 | 0.01 | 0.01 | 87 | 1013.4 |
| 20260504010059 | 56 | 110 | 0.0 | 2.0 | 0.00 | 0.01 | 0.01 | 88 | 1012.6 |
| 20260504004603 | 57 | 138 | 1.0 | 3.0 | 0.00 | 0.02 | 0.01 | 87 | 1012.7 |
| 20260504003100 | 57 | 111 | 0.0 | 4.0 | 0.00 | 0.02 | 0.01 | 86 | 1012.9 |
| 20260504001607 | 60 | 135 | 2.0 | 6.0 | 0.00 | 0.02 | 0.01 | 81 | 1012.6 |
| 20260504000059 | 61 | 331 | 0.0 | 6.0 | 0.00 | 0.02 | 0.01 | 81 | 1012.3 |
| 20260503234557 | 61 | 19 | 1.0 | 8.0 | 0.00 | 0.02 | 0.01 | 82 | 1012.1 |
| 20260503233102 | 60 | 333 | 0.0 | 8.0 | 0.00 | 0.02 | 0.01 | 82 | 1012.1 |
| 20260503231557 | 60 | 17 | 2.0 | 11.0 | 0.00 | 0.02 | 0.01 | 83 | 1012.4 |
| 20260503230055 | 60 | 355 | 2.0 | 8.0 | 0.00 | 0.02 | 0.01 | 83 | 1012.5 |
| 20260503224555 | 60 | 360 | 1.0 | 6.0 | 0.00 | 0.02 | 0.01 | 82 | 1012.6 |
| 20260503223054 | 60 | 315 | 2.0 | 5.0 | 0.00 | 0.02 | 0.01 | 83 | 1012.8 |
| 20260503221555 | 58 | 219 | 1.0 | 17.0 | 0.00 | 0.02 | 0.01 | 85 | 1013.0 |
| 20260503220053 | 58 | 167 | 2.0 | 9.0 | 0.00 | 0.02 | 0.01 | 83 | 1013.2 |
| 20260503214601 | 60 | 202 | 2.0 | 11.0 | 0.00 | 0.02 | 0.01 | 82 | 1012.5 |
| 20260503213052 | 64 | 136 | 2.0 | 9.0 | 0.00 | 0.02 | 0.01 | 76 | 1012.2 |
| 20260503211553 | 64 | 222 | 1.0 | 4.0 | 0.00 | 0.02 | 0.01 | 79 | 1011.9 |
| 20260503210046 | 64 | 242 | 0.0 | 4.0 | 0.00 | 0.02 | 0.01 | 78 | 1011.7 |
| 20260503204554 | 64 | 17 | 0.0 | 5.0 | 0.00 | 0.02 | 0.01 | 79 | 1011.8 |
| 20260503203049 | 63 | 232 | 0.0 | 2.0 | 0.00 | 0.02 | 0.01 | 81 | 1011.9 |
| 20260503201541 | 63 | 187 | 0.0 | 3.0 | 0.00 | 0.02 | 0.01 | 81 | 1011.9 |
| 20260503200038 | 62 | 360 | 0.0 | 2.0 | 0.00 | 0.02 | 0.01 | 82 | 1011.9 |
| 20260503194538 | 61 | 9 | 1.0 | 5.0 | 0.00 | 0.02 | 0.01 | 84 | 1012.0 |
| 20260503193036 | 61 | 5 | 3.0 | 6.0 | 0.00 | 0.02 | 0.01 | 85 | 1012.0 |
| 20260503191533 | 60 | 333 | 2.0 | 5.0 | 0.00 | 0.02 | 0.01 | 84 | 1012.2 |
| 20260503190041 | 59 | 312 | 1.0 | 4.0 | 0.00 | 0.02 | 0.01 | 87 | 1012.2 |
| 20260503184525 | 58 | 327 | 2.0 | 5.0 | 0.00 | 0.02 | 0.01 | 88 | 1012.2 |
| 20260503183023 | 57 | 342 | 2.0 | 5.0 | 0.00 | 0.02 | 0.01 | 89 | 1012.2 |
| 20260503181521 | 57 | 320 | 1.0 | 4.0 | 0.00 | 0.02 | 0.01 | 90 | 1012.3 |
| 20260503180033 | 56 | 15 | 0.0 | 4.0 | 0.00 | 0.02 | 0.01 | 90 | 1012.5 |
| 20260503174516 | 56 | 309 | 1.0 | 3.0 | 0.00 | 0.02 | 0.01 | 91 | 1012.5 |
| 20260503173013 | 55 | 13 | 0.0 | 2.0 | 0.00 | 0.02 | 0.01 | 92 | 1012.4 |
| 20260503171516 | 54 | 321 | 0.0 | 3.0 | 0.00 | 0.02 | 0.01 | 94 | 1012.3 |
| 20260503140119 | 51 | 5 | 0.0 | 2.0 | 0.00 | 0.02 | 0.01 | 96 | 1011.4 |
| 20260503081539 | 52 | 349 | 0.0 | 0.0 | 0.00 | 0.01 | 0.00 | 96 | 1012.6 |
| 20260503071523 | 53 | 349 | 0.0 | 2.0 | 0.00 | 0.01 | 0.00 | 94 | 1012.8 |
| 20260503054516 | 53 | 5 | 0.0 | 4.0 | 0.00 | 0.01 | 0.01 | 93 | 1013.0 |
| 20260503053017 | 53 | 9 | 0.0 | 4.0 | 0.00 | 0.01 | 0.01 | 93 | 1013.0 |
| 20260503051515 | 53 | 355 | 0.0 | 3.0 | 0.00 | 0.01 | 0.01 | 93 | 1013.0 |
| 20260503050014 | 53 | 360 | 2.0 | 4.0 | 0.00 | 0.01 | 0.01 | 92 | 1012.9 |
| 20260503044514 | 54 | 329 | 1.0 | 4.0 | 0.00 | 0.01 | 0.01 | 92 | 1012.7 |
| 20260503043013 | 54 | 337 | 1.0 | 5.0 | 0.00 | 0.01 | 0.01 | 92 | 1012.5 |
| 20260503041517 | 55 | 355 | 1.0 | 4.0 | 0.00 | 0.01 | 0.01 | 92 | 1012.3 |
| 20260503040012 | 55 | 263 | 0.0 | 2.0 | 0.00 | 0.01 | 0.01 | 93 | 1012.0 |
| 20260503034512 | 56 | 252 | 0.0 | 2.0 | 0.00 | 0.01 | 0.01 | 93 | 1011.7 |
| 20260503033020 | 57 | 239 | 0.0 | 2.0 | 0.00 | 0.01 | 0.01 | 93 | 1011.4 |
| 20260503031511 | 58 | 239 | 0.0 | 2.0 | 0.00 | 0.01 | 0.01 | 93 | 1011.2 |
| 20260503030010 | 59 | 236 | 0.0 | 1.0 | 0.00 | 0.01 | 0.01 | 93 | 1011.2 |
| 20260503024512 | 60 | 236 | 0.0 | 0.0 | 0.00 | 0.01 | 0.01 | 92 | 1010.9 |
| 20260503023009 | 60 | 236 | 0.0 | 0.0 | 0.00 | 0.01 | 0.01 | 92 | 1010.8 |
| 20260503021509 | 61 | 236 | 0.0 | 1.0 | 0.00 | 0.01 | 0.01 | 90 | 1010.7 |
| 20260503020008 | 62 | 236 | 0.0 | 2.0 | 0.00 | 0.01 | 0.01 | 88 | 1010.6 |